Regional Weather Roundup
Issued by NWS Northern Indiana

Home | Current Version | Previous Version | Text Only | Print | Product List | Glossary Off
Versions: 1 2 3 4 5 6 7 8 9 10 11 12 13 14 15 16 17 18 19 20 21 22 23 24 25 26 27 28 29 30 31 32 33 34 35 36 37 38 39 40 41 42 43 44 45 46 47 48 49 50

000
ASUS43 KIWX 301100
RWRIWX

KIWX WEATHER ROUNDUP
NATIONAL WEATHER SERVICE NORTHERN INDIANA
700 AM EDT TUE AUG 30 2016

NOTE: "FAIR" INDICATES FEW OR NO CLOUDS BELOW 12,000 FEET WITH NO
SIGNIFICANT WEATHER AND/OR OBSTRUCTIONS TO VISIBILITY.

* THESE STATIONS ARE NOT UNDER NWS QUALITY CONTROL. THEY ALSO MAY NOT
  REPORT WEATHER SUCH AS PRECIPITATION OR FOG.

INZ001>027-301200-
NORTHERN INDIANA

CITY           SKY/WX    TMP DP  RH WIND       PRES   REMARKS
GARY*          MOCLDY    72  72 100 CALM      30.15R FOG
KNOX*          PTCLDY    68  55  64 CALM      30.16R
SOUTH BEND     MOCLDY    71  68  90 N8        30.19R
ELKHART*       CLEAR    N/A N/A N/A CALM      30.17
GOSHEN         PTCLDY    67  63  87 CALM      30.17S
MONTICELLO*    CLEAR     70  66  88 CALM      30.16R
ANGOLA*        CLEAR     64  63  94 CALM      30.19R
FORT WAYNE     PTCLDY    66  63  90 CALM      30.18S

$$
INZ028>050-301200-
CENTRAL INDIANA

CITY           SKY/WX    TMP DP  RH WIND       PRES   REMARKS
LAFAYETTE      CLEAR     69  69 100 NE3       30.15R FOG
KOKOMO*        CLEAR     66  66 100 CALM      30.18R
MUNCIE*        CLEAR     68  66  93 E3        30.18R
INDIANAPOLIS   PTCLDY    74  68  81 E3        30.16R

$$
MIZ043>046-050>051-056>058-064>065-071>073-077>080-301200-
SOUTHWEST LOWER MICHIGAN

CITY           SKY/WX    TMP DP  RH WIND       PRES   REMARKS
BATTLE CREEK   CLOUDY    67  63  87 W5        30.19R
BENTON HARBOR  CLOUDY    69  67  93 CALM      30.16S
COLDWATER*     CLOUDY    67  63  86 CALM      30.18S
HILLSDALE*     PTCLDY    65  61  84 S3        30.19S
HOLLAND        CLOUDY    72  70  93 SE3       30.16S
GRAND RAPIDS   CLOUDY    71  67  87 S5        30.16S
KALAMAZOO      LGT RAIN  70  66  87 S5        30.18S
STURGIS*       CLOUDY    69  61  77 CALM      30.18R
THREE RIVERS*  MOCLDY    70  67  90 CALM      30.18S

$$
OHZ001>008-015>018-024>025-301200-
NORTHWEST OHIO

CITY           SKY/WX    TMP DP  RH WIND       PRES   REMARKS
DEFIANCE       CLEAR     64  60  87 CALM      30.18S
FINDLAY        CLEAR     61  57  87 CALM      30.17S
TOLEDO EXPRESS CLEAR     61  61 100 CALM      30.18S
TOLEDO METCALF CLEAR     63  62  97 CALM      30.19R
LIMA           CLEAR     63  60  90 CALM      30.18S

$$
AND FOR LAKE MICHIGAN COASTAL AND OPEN LAKE BUOY OBSERVATIONS

STATION/POSITION TEMP    WIND        PRES    VSBY  WAVE
                 AIR SEA DIR/SP/G                  HT/PER
                 (F)     (DEG/KT/KT) (MB)    (MI)  (FT/S)
CALUMET HARBOR    73     320/  1/  2 1020.4R
MICHIGAN CITY     72      10/ 10/ 12   N/A
BURNS HARBOR      75     140/  1/  7 1021.0S
SAINT JOSEPH      69     130/  3/  8 1022.7R
SOUTH LAKE BUOY   75 76  230/  2/  2 1020.1          0
4 MI NW BRIDGMAN  71 74   40/ 14/ 19 1021.1R         1
MICHIGAN CITY     74 74   30/  8/ 10   N/A           0

$$
&&




USA.gov is the U.S. government's official web portal to all federal, state and local government web resources and services.